RYR873M EBCI-LIME

Flight info

Callsign RYR873M
Flight time 1h 0m
Altitude 35000
Route RITAX UT27 ROUSY DCT GTQ DCT DEVDI DCT ODINA
Aircraft B738/M-SDE2E3FGHIRWXY/LB1

Departure

Time 2026-05-07 19:00
Airport Brussels South Charleroi Airport (EBCI)

Arrival

Time 2026-05-07 20:00
Airport Il Caravaggio International Airport (LIME)
Time Latitude Longitude Altitude Speed Heading
2026-05-07 18:45 50.46892 4.47165 622 ft 0 kts 335°
2026-05-07 18:54 50.46891 4.47166 622 ft 2 kts 335°
2026-05-07 18:54 50.46868 4.47181 622 ft 4 kts 347°
2026-05-07 18:54 50.46844 4.47180 622 ft 4 kts 30°
2026-05-07 18:54 50.46826 4.47153 622 ft 4 kts 63°
2026-05-07 18:55 50.46822 4.47138 622 ft 0 kts 65°
2026-05-07 18:57 50.46830 4.47167 622 ft 9 kts 65°
2026-05-07 18:57 50.46875 4.47322 622 ft 22 kts 65°
2026-05-07 18:57 50.46943 4.47553 622 ft 11 kts 66°
2026-05-07 18:57 50.46914 4.47596 622 ft 10 kts 158°
2026-05-07 18:58 50.46836 4.47644 622 ft 12 kts 158°
2026-05-07 18:58 50.46806 4.47662 622 ft 0 kts 158°
2026-05-07 18:58 50.46793 4.47670 622 ft 8 kts 158°
2026-05-07 18:58 50.46731 4.47679 622 ft 9 kts 190°
2026-05-07 18:59 50.46659 4.47623 622 ft 18 kts 250°
2026-05-07 18:59 50.46545 4.47206 622 ft 77 kts 245°
2026-05-07 18:59 50.46217 4.46080 622 ft 145 kts 245°
2026-05-07 18:59 50.45765 4.44516 1168 ft 156 kts 245°
2026-05-07 19:00 50.45312 4.42990 2003 ft 158 kts 245°
2026-05-07 19:00 50.44833 4.41304 2497 ft 181 kts 246°
2026-05-07 19:00 50.44287 4.39356 2907 ft 209 kts 246°
2026-05-07 19:00 50.43654 4.37126 3251 ft 237 kts 246°
2026-05-07 19:01 50.42945 4.34649 3708 ft 259 kts 245°
2026-05-07 19:01 50.42187 4.32019 3973 ft 270 kts 245°
2026-05-07 19:01 50.41413 4.29333 4351 ft 277 kts 245°
2026-05-07 19:01 50.40400 4.26798 5548 ft 267 kts 225°
2026-05-07 19:02 50.38931 4.25231 6696 ft 256 kts 200°
2026-05-07 19:02 50.37180 4.24931 7052 ft 251 kts 168°
2026-05-07 19:02 50.35650 4.26049 7106 ft 246 kts 140°
2026-05-07 19:02 50.34439 4.27990 7488 ft 249 kts 130°
2026-05-07 19:03 50.33374 4.30112 8475 ft 246 kts 122°
2026-05-07 19:03 50.32750 4.32562 9369 ft 247 kts 102°
2026-05-07 19:03 50.32649 4.35265 10129 ft 255 kts 85°
2026-05-07 19:03 50.32966 4.38054 10734 ft 268 kts 78°
2026-05-07 19:04 50.33444 4.41003 11147 ft 289 kts 76°
2026-05-07 19:04 50.33984 4.44134 11522 ft 309 kts 76°
2026-05-07 19:04 50.34544 4.47512 11842 ft 331 kts 76°
2026-05-07 19:04 50.35116 4.51086 12283 ft 346 kts 77°
2026-05-07 19:05 50.35689 4.54777 13002 ft 351 kts 77°
2026-05-07 19:05 50.36252 4.58525 13741 ft 356 kts 79°
2026-05-07 19:05 50.36388 4.62384 14473 ft 358 kts 97°
2026-05-07 19:05 50.35703 4.66180 15207 ft 360 kts 116°
2026-05-07 19:06 50.34334 4.69466 15882 ft 362 kts 132°
2026-05-07 19:06 50.30743 4.75089 17255 ft 369 kts 137°
2026-05-07 19:06 50.28906 4.77919 17905 ft 373 kts 137°
2026-05-07 19:07 50.27051 4.80770 18551 ft 376 kts 137°
2026-05-07 19:07 50.25173 4.83652 19164 ft 380 kts 137°
2026-05-07 19:07 50.23279 4.86553 19778 ft 384 kts 137°
2026-05-07 19:07 50.21406 4.89420 20372 ft 387 kts 137°
2026-05-07 19:08 50.19431 4.92438 20957 ft 391 kts 137°
2026-05-07 19:08 50.17478 4.95418 21532 ft 394 kts 137°
2026-05-07 19:08 50.15511 4.98416 22077 ft 398 kts 137°
2026-05-07 19:08 50.13522 5.01444 22624 ft 401 kts 137°
2026-05-07 19:09 50.11517 5.04492 23157 ft 404 kts 137°
2026-05-07 19:09 50.09500 5.07565 23656 ft 407 kts 137°
2026-05-07 19:09 50.07486 5.10693 24152 ft 410 kts 137°
2026-05-07 19:09 50.05456 5.13827 24639 ft 413 kts 137°
2026-05-07 19:10 50.03406 5.16976 25106 ft 416 kts 137°
2026-05-07 19:10 50.01334 5.20142 25558 ft 419 kts 137°
2026-05-07 19:10 49.99256 5.23309 25981 ft 422 kts 137°
2026-05-07 19:10 49.97132 5.26537 26396 ft 426 kts 137°
2026-05-07 19:11 49.95008 5.29758 26806 ft 428 kts 138°
2026-05-07 19:11 49.92874 5.32988 27211 ft 431 kts 138°
2026-05-07 19:11 49.90715 5.36252 27608 ft 434 kts 138°
2026-05-07 19:11 49.88547 5.39523 27988 ft 436 kts 138°
2026-05-07 19:12 49.86362 5.42816 28357 ft 439 kts 138°
2026-05-07 19:12 49.84172 5.46112 28723 ft 441 kts 138°
2026-05-07 19:12 49.81964 5.49429 29070 ft 444 kts 138°
2026-05-07 19:12 49.79735 5.52773 29409 ft 446 kts 138°
2026-05-07 19:13 49.77517 5.56097 29778 ft 447 kts 138°
2026-05-07 19:13 49.75268 5.59463 30251 ft 445 kts 138°
2026-05-07 19:13 49.73025 5.62814 30689 ft 445 kts 138°
2026-05-07 19:13 49.70790 5.66150 31105 ft 444 kts 138°
2026-05-07 19:14 49.68569 5.69461 31510 ft 444 kts 138°
2026-05-07 19:14 49.66362 5.72746 31917 ft 444 kts 138°
2026-05-07 19:14 49.64103 5.76105 32306 ft 444 kts 138°
2026-05-07 19:14 49.61892 5.79387 32694 ft 443 kts 138°
2026-05-07 19:15 49.59663 5.82692 33069 ft 443 kts 138°
2026-05-07 19:15 49.57438 5.85985 33443 ft 442 kts 138°
2026-05-07 19:15 49.55217 5.89270 33813 ft 442 kts 138°
2026-05-07 19:15 49.53011 5.92528 34162 ft 441 kts 138°
2026-05-07 19:16 49.50784 5.95813 34525 ft 441 kts 139°
2026-05-07 19:16 49.48601 5.99028 34850 ft 441 kts 139°
2026-05-07 19:16 49.46363 6.02320 35029 ft 444 kts 139°
2026-05-07 19:16 49.44114 6.05624 35039 ft 446 kts 139°
2026-05-07 19:17 49.39610 6.12229 35052 ft 450 kts 139°
2026-05-07 19:17 49.35049 6.18899 35055 ft 455 kts 139°
2026-05-07 19:18 49.30460 6.25592 35052 ft 454 kts 139°
2026-05-07 19:18 49.25876 6.32261 35057 ft 455 kts 139°
2026-05-07 19:19 49.21290 6.38936 35058 ft 455 kts 138°
2026-05-07 19:19 49.16715 6.45616 35058 ft 455 kts 139°
2026-05-07 19:20 49.12120 6.52234 35059 ft 455 kts 139°
2026-05-07 19:20 49.07492 6.58871 35060 ft 455 kts 139°
2026-05-07 19:21 49.02863 6.65497 35062 ft 456 kts 139°
2026-05-07 19:21 48.97922 6.71459 35064 ft 452 kts 150°
2026-05-07 19:22 48.92347 6.75918 35062 ft 449 kts 158°
2026-05-07 19:22 48.86636 6.79779 35061 ft 449 kts 159°
2026-05-07 19:23 48.80898 6.83652 35061 ft 450 kts 159°
2026-05-07 19:23 48.75190 6.87506 35060 ft 450 kts 159°
2026-05-07 19:24 48.69467 6.91364 35059 ft 450 kts 159°
2026-05-07 19:24 48.63754 6.95249 35060 ft 450 kts 159°
2026-05-07 19:25 48.58061 6.99113 35058 ft 450 kts 159°
2026-05-07 19:25 48.52325 7.02981 35058 ft 451 kts 159°
2026-05-07 19:26 48.47560 7.06181 35053 ft 451 kts 159°
2026-05-07 19:26 48.41842 7.10011 35052 ft 451 kts 159°
2026-05-07 19:27 48.36091 7.13853 35053 ft 451 kts 159°
2026-05-07 19:27 48.30353 7.17676 35052 ft 451 kts 159°
2026-05-07 19:28 48.24584 7.21510 35052 ft 452 kts 159°
2026-05-07 19:28 48.18855 7.25308 35053 ft 452 kts 159°
2026-05-07 19:29 48.13101 7.29114 35053 ft 452 kts 159°
2026-05-07 19:29 48.07304 7.32939 35053 ft 452 kts 160°
2026-05-07 19:30 48.01584 7.36724 35053 ft 453 kts 159°
2026-05-07 19:30 47.95813 7.40529 35052 ft 453 kts 160°
2026-05-07 19:31 47.90010 7.44320 35052 ft 453 kts 160°
2026-05-07 19:31 47.84281 7.48052 35051 ft 453 kts 160°
2026-05-07 19:32 47.78506 7.51807 35051 ft 453 kts 160°
2026-05-07 19:32 47.72732 7.55570 35052 ft 453 kts 159°
2026-05-07 19:33 47.67027 7.59584 35052 ft 454 kts 158°
2026-05-07 19:33 47.61338 7.63602 35053 ft 454 kts 158°
2026-05-07 19:34 47.55618 7.67614 35051 ft 454 kts 158°
2026-05-07 19:34 47.49888 7.71614 35048 ft 454 kts 159°
2026-05-07 19:35 47.44174 7.75592 35044 ft 453 kts 159°
2026-05-07 19:35 47.38453 7.79614 35041 ft 453 kts 158°
2026-05-07 19:36 47.32748 7.83604 35037 ft 453 kts 159°
2026-05-07 19:36 47.27085 7.87541 35035 ft 452 kts 159°
2026-05-07 19:37 47.21357 7.91510 35033 ft 452 kts 159°
2026-05-07 19:37 47.15688 7.95425 35030 ft 452 kts 159°
2026-05-07 19:38 47.09948 7.99379 35026 ft 451 kts 159°
2026-05-07 19:38 47.04294 8.03265 35033 ft 453 kts 159°
2026-05-07 19:39 46.98632 8.07142 35037 ft 453 kts 160°
2026-05-07 19:39 46.92951 8.11031 35041 ft 448 kts 160°
2026-05-07 19:40 46.87323 8.14873 35041 ft 452 kts 160°
2026-05-07 19:40 46.81568 8.18791 35033 ft 452 kts 160°
2026-05-07 19:41 46.75872 8.22660 35027 ft 451 kts 160°
2026-05-07 19:41 46.70182 8.26516 35027 ft 452 kts 160°
2026-05-07 19:42 46.64485 8.30368 35027 ft 457 kts 160°
2026-05-07 19:42 46.58716 8.34259 34890 ft 457 kts 160°
2026-05-07 19:43 46.55809 8.36216 34444 ft 452 kts 160°
2026-05-07 19:43 46.52949 8.38140 33719 ft 453 kts 160°
2026-05-07 19:43 46.50122 8.40039 33008 ft 454 kts 160°
2026-05-07 19:43 46.47254 8.41963 32279 ft 455 kts 160°
2026-05-07 19:44 46.44382 8.43888 31537 ft 455 kts 160°
2026-05-07 19:44 46.41501 8.45816 30777 ft 456 kts 160°
2026-05-07 19:44 46.38596 8.47848 29952 ft 461 kts 155°
2026-05-07 19:44 46.35929 8.50391 29606 ft 460 kts 147°
2026-05-07 19:45 46.33538 8.53462 29359 ft 469 kts 138°
2026-05-07 19:45 46.31397 8.57014 29114 ft 476 kts 133°
2026-05-07 19:45 46.29304 8.60734 28865 ft 479 kts 132°
2026-05-07 19:45 46.27207 8.64492 28612 ft 477 kts 132°
2026-05-07 19:46 46.25124 8.68214 28362 ft 474 kts 132°
2026-05-07 19:46 46.23070 8.71875 28112 ft 472 kts 132°
2026-05-07 19:46 46.21011 8.75535 27863 ft 469 kts 132°
2026-05-07 19:46 46.18934 8.79224 27609 ft 468 kts 132°
2026-05-07 19:47 46.16878 8.82865 27358 ft 466 kts 132°
2026-05-07 19:47 46.14819 8.86508 27064 ft 463 kts 132°
2026-05-07 19:47 46.12787 8.90011 26493 ft 457 kts 133°
2026-05-07 19:47 46.10752 8.93510 25884 ft 454 kts 132°
2026-05-07 19:48 46.08732 8.96954 25365 ft 449 kts 133°
2026-05-07 19:48 46.06707 9.00370 24861 ft 444 kts 133°
2026-05-07 19:48 46.04728 9.03685 24349 ft 440 kts 133°
2026-05-07 19:48 46.02750 9.07020 23834 ft 436 kts 131°
2026-05-07 19:49 46.00897 9.10509 23310 ft 433 kts 128°
2026-05-07 19:49 45.99117 9.14000 22777 ft 430 kts 128°
2026-05-07 19:49 45.97379 9.17418 22258 ft 427 kts 128°
2026-05-07 19:49 45.95632 9.20846 21753 ft 423 kts 128°
2026-05-07 19:50 45.93875 9.24282 21230 ft 420 kts 128°
2026-05-07 19:50 45.92173 9.27601 20742 ft 416 kts 128°
2026-05-07 19:50 45.90460 9.30938 20222 ft 413 kts 128°
2026-05-07 19:50 45.88757 9.34244 19729 ft 410 kts 128°
2026-05-07 19:51 45.87068 9.37514 19228 ft 407 kts 128°
2026-05-07 19:51 45.85386 9.40762 18746 ft 404 kts 128°
2026-05-07 19:51 45.83715 9.43981 18248 ft 401 kts 128°
2026-05-07 19:51 45.81963 9.47346 17747 ft 396 kts 128°
2026-05-07 19:52 45.80350 9.50439 16908 ft 382 kts 128°
2026-05-07 19:52 45.78762 9.53473 15783 ft 379 kts 128°
2026-05-07 19:52 45.77183 9.56465 14663 ft 375 kts 128°
2026-05-07 19:52 45.76120 9.58469 13912 ft 372 kts 128°
2026-05-07 19:53 45.74583 9.61350 12830 ft 366 kts 128°
2026-05-07 19:53 45.73141 9.64320 11738 ft 361 kts 121°
2026-05-07 19:53 45.71928 9.67431 10670 ft 355 kts 118°
2026-05-07 19:53 45.70786 9.70544 9615 ft 352 kts 118°
2026-05-07 19:54 45.69725 9.73757 7025 ft 382 kts 114°
2026-05-07 19:54 45.68677 9.77141 5845 ft 366 kts 112°
2026-05-07 19:54 45.67770 9.80467 4901 ft 349 kts 110°
2026-05-07 19:54 45.67059 9.83458 4110 ft 334 kts 108°
2026-05-07 19:55 45.66373 9.86522 3648 ft 310 kts 108°
2026-05-07 19:55 45.65676 9.89307 3333 ft 286 kts 116°
2026-05-07 19:55 45.64504 9.91413 3127 ft 260 kts 143°
2026-05-07 19:55 45.62935 9.92331 3028 ft 233 kts 173°
2026-05-07 19:56 45.61446 9.91956 2971 ft 206 kts 207°
2026-05-07 19:56 45.60527 9.90579 2937 ft 187 kts 245°
2026-05-07 19:56 45.60448 9.88811 2915 ft 179 kts 285°
2026-05-07 19:56 45.61149 9.87411 2947 ft 173 kts 316°
2026-05-07 19:57 45.62085 9.86352 2980 ft 172 kts 321°
2026-05-07 19:57 45.63040 9.85342 2770 ft 168 kts 322°
2026-05-07 19:57 45.63878 9.84186 2339 ft 171 kts 301°
2026-05-07 19:57 45.64277 9.82639 2145 ft 158 kts 287°
2026-05-07 19:58 45.64525 9.81210 2088 ft 141 kts 285°
2026-05-07 19:58 45.64782 9.79858 1923 ft 145 kts 294°
2026-05-07 19:58 45.65186 9.78556 1653 ft 140 kts 294°
2026-05-07 19:58 45.65505 9.77241 1454 ft 145 kts 290°
2026-05-07 19:59 45.65803 9.75857 1315 ft 148 kts 288°
2026-05-07 19:59 45.66070 9.74406 1102 ft 151 kts 287°
2026-05-07 19:59 45.66340 9.73024 914 ft 141 kts 288°
2026-05-07 19:59 45.66593 9.71734 792 ft 122 kts 285°
2026-05-07 20:00 45.66747 9.70899 790 ft 54 kts 287°
2026-05-07 20:00 45.66833 9.70453 790 ft 43 kts 282°
2026-05-07 20:00 45.66890 9.70065 790 ft 38 kts 258°
2026-05-07 20:00 45.66797 9.69805 790 ft 21 kts 238°
2026-05-07 20:01 45.66815 9.69612 791 ft 20 kts 284°
2026-05-07 20:01 45.66844 9.69438 791 ft 5 kts 248°
2026-05-07 20:01 45.66823 9.69418 791 ft 3 kts 207°
2026-05-07 20:01 45.66785 9.69403 791 ft 9 kts 194°
2026-05-07 20:02 45.66749 9.69390 791 ft 0 kts 194°